TimeAKST,TemperatureF,Dew PointF,Humidity,Sea Level PressureIn,VisibilityMPH,Wind Direction,Wind SpeedMPH,Gust SpeedMPH,PrecipitationIn,Events,Conditions,WindDirDegrees,DateUTC
12:53 AM,-18.0,-23.1,78,30.13,10.0,Calm,Calm,-,N/A,,Partly Cloudy,0,2012-11-16 09:53:00
1:53 AM,-18.0,-24.0,74,30.15,10.0,Calm,Calm,-,N/A,,Partly Cloudy,0,2012-11-16 10:53:00
2:53 AM,-20.0,-25.1,78,30.16,10.0,Calm,Calm,-,N/A,,Partly Cloudy,0,2012-11-16 11:53:00
3:53 AM,-20.9,-27.9,70,30.17,10.0,Calm,Calm,-,N/A,,Partly Cloudy,0,2012-11-16 12:53:00
4:53 AM,-23.1,-29.0,74,30.18,10.0,Calm,Calm,-,N/A,,Partly Cloudy,0,2012-11-16 13:53:00
5:53 AM,-23.1,-27.9,78,30.19,10.0,Calm,Calm,-,N/A,,Partly Cloudy,0,2012-11-16 14:53:00
6:53 AM,-23.1,-29.0,74,30.21,10.0,Calm,Calm,-,N/A,,Partly Cloudy,0,2012-11-16 15:53:00
7:53 AM,-22.0,-27.0,77,30.22,10.0,Calm,Calm,-,N/A,,Partly Cloudy,0,2012-11-16 16:53:00
8:53 AM,-25.1,-31.0,74,30.23,6.0,Calm,Calm,-,N/A,,Scattered Clouds,0,2012-11-16 17:53:00
9:53 AM,-23.1,-27.9,78,30.22,5.0,NE,3.5,-,N/A,,Scattered Clouds,40,2012-11-16 18:53:00
10:53 AM,-20.0,-26.0,74,30.22,8.0,Calm,Calm,-,N/A,,Partly Cloudy,0,2012-11-16 19:53:00
11:53 AM,-17.0,-24.0,70,30.21,8.0,Calm,Calm,-,N/A,,Partly Cloudy,0,2012-11-16 20:53:00
12:53 PM,-15.0,-20.9,75,30.22,8.0,Calm,Calm,-,N/A,,Partly Cloudy,0,2012-11-16 21:53:00
1:53 PM,-14.1,-20.0,75,30.21,7.0,SSE,3.5,-,N/A,,Partly Cloudy,160,2012-11-16 22:53:00
2:53 PM,-14.1,-20.0,75,30.20,6.0,Calm,Calm,-,N/A,,Partly Cloudy,0,2012-11-16 23:53:00
3:53 PM,-20.9,-26.0,77,30.20,10.0,Calm,Calm,-,N/A,,Partly Cloudy,0,2012-11-17 00:53:00
4:53 PM,-20.0,-26.0,74,30.20,10.0,Calm,Calm,-,N/A,,Partly Cloudy,0,2012-11-17 01:53:00
5:53 PM,-22.0,-27.9,74,30.19,10.0,North,3.5,-,N/A,,Clear,10,2012-11-17 02:53:00
6:53 PM,-20.9,-27.0,73,30.18,10.0,North,3.5,-,N/A,,Clear,10,2012-11-17 03:53:00
7:53 PM,-24.0,-31.0,70,30.17,10.0,Calm,Calm,-,N/A,,Clear,0,2012-11-17 04:53:00
8:53 PM,-25.1,-31.0,74,30.16,10.0,North,5.8,-,N/A,,Clear,10,2012-11-17 05:53:00
9:53 PM,-23.1,-29.0,74,30.14,10.0,Calm,Calm,-,N/A,,Clear,0,2012-11-17 06:53:00
10:53 PM,-20.0,-25.1,78,30.11,10.0,North,4.6,-,N/A,,Clear,360,2012-11-17 07:53:00
11:53 PM,-5.1,-13.0,69,30.07,10.0,NNE,8.1,-,N/A,,Clear,30,2012-11-17 08:53:00